Regional Weather Roundup
Issued by NWS

Home | Current Version | Previous Version | Graphics & Text | Print | Product List | Glossary On
Versions: 1 2 3 4 5 6 7 8 9 10 11 12 13 14 15 16 17 18 19 20 21 22 23 24 25 26 27 28 29 30 31 32 33 34 35 36 37 38 39 40 41 42 43 44 45 46 47 48 49 50
000
ASUS43 KLOT 021312
RWRIL

ILLINOIS REGIONAL WEATHER ROUNDUP
NATIONAL WEATHER SERVICE CHICAGO/ROMEOVILLE IL
800 AM CDT SUN AUG 02 2015

NOTE: "FAIR" INDICATES FEW OR NO CLOUDS BELOW 12,000 FEET WITH NO
SIGNIFICANT WEATHER AND/OR OBSTRUCTIONS TO VISIBILITY.

* THESE STATIONS ARE NOT UNDER NWS QUALITY CONTROL. THEY ALSO MAY NOT
  REPORT WEATHER SUCH AS PRECIPITATION OR FOG.

ILZ001-002-007-009-015-016-024-021400-
NORTHWEST ILLINOIS

CITY           SKY/WX    TMP DP  RH WIND       PRES   REMARKS
MOLINE         MOSUNNY   73  63  70 W6        29.86F
STERLING*      SUNNY     73  66  78 W8        29.83S
SAVANNA*       SUNNY     74  68  79 SW10G16   29.84S
$$

ILZ003-004-008-010-011-017-018-021400-
NORTH CENTRAL ILLINOIS

CITY           SKY/WX    TMP DP  RH WIND       PRES   REMARKS
ROCKFORD       MOSUNNY   73  68  84 S8        29.85S
FREEPORT*      SUNNY     73  69  87 SW12      29.85R
ROCHELLE*      SUNNY     71  68  91 SW6       29.86S
DE KALB*       SUNNY     74  68  80 SW14      29.86F
PERU*          SUNNY     75  65  70 SW13      29.88F
$$

ILZ005-006-012>014-019>023-021400-
NORTHEAST ILLINOIS

CITY           SKY/WX    TMP DP  RH WIND       PRES   REMARKS
CHICAGO-OHARE  MOSUNNY   74  67  78 SW9       29.84F
CHICAGO-MIDWAY MOSUNNY   76  66  71 SW10      29.85F
AURORA         SUNNY     74  66  76 SW13      29.86F
LANSING*       SUNNY     74  66  75 SW9       29.88S
JOLIET*        SUNNY     74  67  77 SW6       29.88S
WAUKEGAN       SUNNY     75  69  81 SW14      29.82F
DUPAGE AIRPORT SUNNY     73  67  81 SW12      29.85S
KANKAKEE*      SUNNY     72  67  83 CALM      29.91S
WHEELING       SUNNY     76  66  71 SW9       29.84F
MORRIS*        SUNNY     72  67  85 SW7       29.87S
ROMEOVILLE*    SUNNY     73  65  74 SW7       29.87S
NORTHERLY ISL    N/A     76  65  68 SW8         N/A
$$

LMZ740>746-021400-
SOUTHERN LAKE MICHIGAN

STATION/POSITION SKY/WX   TEMP    WIND        PRES    VSBY  WAVE
                          AIR SEA DIR/SP/G                  HT/PER
                          (F)     (DEG/KT/KT) (MB)    (MI)  (FT/S)
HARRISON CRIB              73     210/ 18/ 21   N/A
BURNHAM HARBOR             76     230/  5/  9   N/A
CALUMET HARBOR             71     200/  7/ 10   N/A
BURNS HARBOR               73     210/  9/ 17 1012.2F
MICHIGAN CITY              71     180/ 11/ 13   N/A
MICHIGAN CITY 6N           73 73  220/ 12/ 16   N/A           2/ 3
ST. JOSEPH                 73 73  240/ 16/ 17   N/A           3/ 4
$$

ILZ025>027-034>036-040-047-049-050-058-095>099-021400-
WEST-CENTRAL ILLINOIS

CITY           SKY/WX    TMP DP  RH WIND       PRES   REMARKS
QUINCY         CLOUDY    73  69  87 S9        29.92S
GALESBURG*     MOSUNNY   71  65  82 S8        29.90S
MACOMB*        MOSUNNY   71  66  83 SW6       29.93F
JACKSONVILLE*  MOSUNNY   77  70  79 S7        29.93S
PITTSFIELD*    MOSUNNY   76  69  81 SW6       29.94S
$$

ILZ028>032-037-038-041>044-048-051>054-059>061-021400-
CENTRAL ILLINOIS

CITY           SKY/WX    TMP DP  RH WIND       PRES   REMARKS
PONTIAC        SUNNY     74  70  89 SW9       29.91S
BLOOMINGTON    SUNNY     73  69  87 SW13      29.95R
DECATUR        SUNNY     72  65  78 SW8       29.96R
PEORIA         SUNNY     74  67  78 SW7       29.91S
LACON*         SUNNY     74  65  75 SW8       29.89S
LINCOLN*       SUNNY     76  69  79 SW6       29.93S
SPRINGFIELD    MOSUNNY   74  70  87 SW6       29.94S
TAYLORVILLE    MOSUNNY   72  68  88 SW5       29.96R
$$

ILZ033-039-045-046-055>057-062-063-021400-
EAST-CENTRAL ILLINOIS

CITY           SKY/WX    TMP DP  RH WIND       PRES   REMARKS
CHAMPAIGN      SUNNY     72  65  78 SW8       29.95S
DANVILLE*      SUNNY     70  65  84 SW6       29.93R
RANTOUL*       SUNNY     75  67  76 SW8       29.94S
MATTOON        SUNNY     73  62  68 SW8       29.96R
PARIS*         SUNNY     72  65  79 SW6       29.97S
$$

ILZ079-100>102-021400-
SOUTHWEST ILLINOIS

CITY           SKY/WX    TMP DP  RH WIND       PRES   REMARKS
ALTON          MOSUNNY   75  72  88 S6        29.96S
BELLEVILLE     SUNNY     78  75  91 S3        29.95S HX  80
CAHOKIA*       SUNNY     77  70  79 S3        29.96R
SPARTA*        MOSUNNY   76  70  81 S8        29.99R
$$

ILZ064>066-069>071-074>076-080>082-084>086-088>090-092>094-021400-
SOUTH-CENTRAL ILLINOIS

CITY           SKY/WX    TMP DP  RH WIND       PRES   REMARKS
CARBONDALE     MOSUNNY   75  67  76 SW6       29.98R
CAIRO*         MOSUNNY   76  70  81 S3        29.99R
EFFINGHAM*     SUNNY     73  62  66 CALM      29.98S
MARION         MOSUNNY   77  68  73 S8        29.99R
MT. VERNON     SUNNY     73  64  73 SW3       29.98S
CENTRALIA*     SUNNY     76  64  65 S6        29.97S
SALEM*         SUNNY     75  65  71 S5        29.97S
METROPOLIS*    MOSUNNY   74  72  95 CALM      30.00R
$$

ILZ067-068-072-073-078-083-087-091-021400-
SOUTHEAST ILLINOIS

CITY           SKY/WX    TMP DP  RH WIND       PRES   REMARKS
LAWRENCEVILLE  SUNNY     71  66  84 CALM      29.98R
FLORA*         SUNNY     72  65  79 SW3       29.97F
FAIRFIELD*     SUNNY     73  65  76 CALM      29.97R
HARRISBURG*    SUNNY     70  70 100 CALM      29.99R
ROBINSON*      SUNNY     71  65  80 CALM      29.99R
CARMI*         SUNNY     73  67  82 CALM      29.98R
$$

ABBREVIATIONS USED IN REMARKS
   TC - TEMPERATURE IN CELSIUS
  WCI - WIND CHILL INDEX
   HX - HEAT INDEX
  VSB - VISIBILITY
$$



USA.gov is the U.S. government's official web portal to all federal, state and local government web resources and services.